Location: Newark
(45.2500°N, 7.5833°E)
Time: 21:03:24
(UTC+00:00)

Vanguard 3 - Pass Details

Date: 27 January 2020
Orbit: 508 x 3263 km, 33.3° (Epoch: 22 February)

Event Time Altitude Azimuth Distance (km) Brightness Sun altitude
Rises 13:23:34 0° 188° (S) 6,263 12.9 22.2°
Reaches altitude 10° 13:29:15 10° 173° (S) 5,645 12.5 21.8°
Maximum altitude 13:40:30 20° 134° (SE) 5,276 11.6 20.8°
Drops below altitude 10° 13:52:34 10° 97° (E) 6,157 11.4 19.7°
Sets 13:59:04 0° 83° (E) 6,997 11.5 19.1°
